Home > Weather > Vernier > Past weeks

Flag for Switzerland Weather for the Past 2 Weeks in Vernier, Geneva, Switzerland

Now
45 °F

Passing clouds.


Feels Like: 42 °F
Forecast: 36 / 46 °F
Wind: 5 mph from East

Location: Geneva Cointrin Airport

Current Time: Feb 6, 2016 at 3:37:45 PM

Latest Report: Feb 6, 2016 at 3:20 PM


Visibility: N/A

Pressure: 30.01 "Hg

Humidity: 93%

Dew point: 43 °F

Location of VernierLocation

Historic Weather in Vernier — Graph

°F

Vernier Temperature Yesterday

Maximum temperature yesterday: 48 °F (at 1:50 PM)
Minimum temperature yesterday: 34 °F (at 4:20 AM)
Average temperature yesterday: 39 °F

High & Low Weather Summary for the Past Weeks

 TemperatureHumidityPressure
High59 °F (Feb 1, 2:20 PM)100% (Jan 24, 3:20 AM)30.60 "Hg (Jan 24, 3:20 AM)
Low28 °F (Jan 24, 12:50 AM)50% (Jan 25, 3:20 PM)30.04 "Hg (Feb 6, 2:20 PM)
Average43 °F81%30.37 "Hg
* Reported Jan 22 2:20 PM — Feb 6 2:20 PM, Vernier, Weather by CustomWeather, © 2016

Note: Actual official high and low records may vary slightly from our data, if they occured in-between our weather recording intervals... More about our weather records

Advertising

Vernier Weather History for the Previous 24 Hours

 ConditionsComfort  
Time TempWeatherWind HumidityBarometerVisibility
2:20 PM
Sat, Feb 6
45 °FPassing clouds.5 mph87%30.04 "HgN/A
1:50 PM41 °FPassing clouds.5 mph100%30.07 "HgN/A
1:20 PM43 °FPassing clouds.5 mph93%30.09 "HgN/A
12:50 PM41 °FQuite cool.6 mph93%30.09 "HgN/A
12:20 PM39 °FChilly.5 mph100%30.12 "Hg6 mi
11:50 AM41 °FFog.3 mph100%30.15 "Hg6 mi
11:20 AM41 °FLight fog.3 mph93%30.15 "Hg6 mi
10:50 AM39 °FLight fog.3 mph93%30.18 "Hg1 mi
10:20 AM37 °FFog.1 mph93%30.18 "Hg0 mi
9:50 AM36 °FFog.2 mph100%30.18 "Hg0 mi
9:20 AM36 °FFog.1 mph93%30.18 "Hg0 mi
8:50 AM34 °FFog.1 mph100%30.18 "Hg0 mi
8:20 AM34 °FFog.3 mph100%30.18 "Hg0 mi
7:50 AM34 °FFog.3 mph100%30.18 "Hg0 mi
7:20 AM34 °FFog.2 mph100%30.18 "Hg0 mi
6:50 AM34 °FFog.2 mph100%30.18 "Hg0 mi
6:20 AM34 °FFog.3 mph100%30.18 "Hg0 mi
5:50 AM36 °FFog.2 mph93%30.21 "Hg0 mi
5:20 AM36 °FFog.1 mph100%30.21 "Hg0 mi
4:50 AM36 °FFog.2 mph100%30.21 "Hg0 mi
4:20 AM36 °FFog.1 mph100%30.21 "Hg0 mi
3:50 AM36 °FFog.1 mph100%30.21 "Hg0 mi
3:20 AM36 °FFog.2 mph100%30.21 "Hg0 mi
2:50 AM37 °FFog.2 mph93%30.24 "Hg0 mi
1:50 AM37 °FFog.3 mph93%30.24 "Hg0 mi
1:20 AM37 °FFog.3 mph93%30.24 "Hg0 mi
12:50 AM37 °FFog.2 mph93%30.27 "Hg0 mi
12:20 AM37 °FFog.2 mph100%30.27 "Hg0 mi
11:20 PM
Fri, Feb 5
37 °FFog.2 mph100%30.27 "Hg0 mi
10:50 PM37 °FFog.1 mph100%30.27 "Hg0 mi
10:20 PM37 °FFog.2 mph100%30.27 "Hg0 mi
9:50 PM37 °FFog.2 mph100%30.27 "Hg0 mi
9:20 PM37 °FFog.1 mph100%30.27 "Hg0 mi
8:50 PM39 °FFog.1 mph93%30.27 "Hg0 mi
8:20 PM39 °FFog.1 mph93%30.30 "Hg0 mi
7:50 PM39 °FFog.2 mph93%30.30 "Hg0 mi
7:20 PM39 °FFog.2 mph93%30.30 "Hg0 mi
6:50 PM39 °FFog.2 mph93%30.30 "Hg1 mi
6:20 PM39 °FFog.3 mph93%30.30 "Hg2 mi
5:50 PM41 °FPassing clouds.6 mph87%30.30 "Hg5 mi
5:20 PM43 °FPassing clouds.7 mph81%30.30 "HgN/A
4:50 PM45 °FScattered clouds.8 mph81%30.30 "HgN/A
4:20 PM46 °FScattered clouds.7 mph76%30.30 "HgN/A
3:50 PM48 °FPassing clouds.6 mph66%30.30 "HgN/A
3:20 PM48 °FPassing clouds.5 mph71%30.33 "HgN/A
Weather by CustomWeather, © 2016

See weather overviewHow to use our weather pages